Regional Weather Roundup
Issued by NWS

Home | Current Version | Previous Version | Text Only | Print | Product List | Glossary On
Versions: 1 2 3 4 5 6 7 8 9 10 11 12 13 14 15 16 17 18 19 20 21 22 23 24 25 26 27 28 29 30 31 32 33 34 35 36 37 38 39 40 41 42 43 44 45 46 47 48 49 50
000
ASUS43 KMKX 010021
RWRWI

WISCONSIN REGIONAL WEATHER ROUNDUP
NATIONAL WEATHER SERVICE MILWAUKEE/SULLIVAN WI
700 PM CDT THU JUL 31 2014

NOTE: "FAIR" INDICATES FEW OR NO CLOUDS BELOW 12,000 FEET WITH NO
SIGNIFICANT WEATHER AND/OR OBSTRUCTIONS TO VISIBILITY.

WIZ001-002-006>008-014>016-023>028-010100-
NORTHWEST WISCONSIN

CITY           SKY/WX    TMP DP  RH WIND       PRES   REMARKS
SUPERIOR ARPT  SUNNY     77  58  51 N7        29.95S
6HR MIN TEMP:  77; 6HR MAX TEMP:  81;

ASHLAND        SUNNY     75  58  55 W3        29.96S
6HR MIN TEMP:  75; 6HR MAX TEMP:  79;

HAYWARD        MOSUNNY   77  60  55 CALM      29.98S
6HR MIN TEMP:  75; 6HR MAX TEMP:  80;

SIREN          LGT RAIN  72  65  78 CALM      29.98F
6HR MIN TEMP:  70; 6HR MAX TEMP:  81; 6HR PCP:  0.03;

RICE LAKE      PTSUNNY   73  60  63 SW7       30.01S
6HR MIN TEMP:  72; 6HR MAX TEMP:  78;

LADYSMITH      PTSUNNY   71  62  73 SW5       30.01S
6HR MIN TEMP:  71; 6HR MAX TEMP:  79;

EAU CLAIRE     PTSUNNY   76  58  53 W5        29.98S
6HR MIN TEMP:  76; 6HR MAX TEMP:  82;

MENOMONIE      MOCLDY    79  55  43 SW8       29.98F HX  80
6HR MIN TEMP:  79; 6HR MAX TEMP:  82;

NEW RICHMOND   SUNNY     78  56  47 W7        30.00S
6HR MIN TEMP:  78; 6HR MAX TEMP:  81;

OSCEOLA        MOSUNNY   78  59  51 W8        30.01S
6HR MIN TEMP:  78; 6HR MAX TEMP:  81;

$$

WIZ003>005-009-010-017-018-010100-
NORTH CENTRAL WISCONSIN

CITY           SKY/WX    TMP DP  RH WIND       PRES   REMARKS
WOODRUFF       SUNNY     77  52  41 NW3       30.00R
6HR MIN TEMP:  77; 6HR MAX TEMP:  80;

RHINELANDER    SUNNY     73  55  53 CALM      30.00S
6HR MIN TEMP:  72; 6HR MAX TEMP:  78;

EAGLE RIVER    SUNNY     72  46  39 N3        30.00R
6HR MIN TEMP:  72; 6HR MAX TEMP:  76;

LAND O LAKES   SUNNY     72  49  44 CALM      30.01R
6HR MIN TEMP:  72; 6HR MAX TEMP:  76;

PHILLIPS       MOSUNNY   74  58  58 W3        29.99S
6HR MIN TEMP:  73; 6HR MAX TEMP:  76;

TOMAHAWK       SUNNY     72  56  58 CALM      30.00S
6HR MIN TEMP:  72; 6HR MAX TEMP:  76;

MEDFORD        MOSUNNY   71  62  73 W9G16     30.00S
6HR MIN TEMP:  69; 6HR MAX TEMP:  76;

MERRILL        MOSUNNY   74  62  68 W5        29.99R
6HR MIN TEMP:  73; 6HR MAX TEMP:  78;

$$

WIZ029-030-035-036-043>047-010100-
CENTRAL WISCONSIN

CITY           SKY/WX    TMP DP  RH WIND       PRES   REMARKS
WAUSAU         MOSUNNY   74  61  63 W8        29.97S
6HR MIN TEMP:  71; 6HR MAX TEMP:  80; 6HR PCP:  0.04;

MOSINEE        MOSUNNY   73  61  64 NW8       30.00F
MARSHFIELD     MOSUNNY   74  60  61 W7        29.99S
6HR MIN TEMP:  69; 6HR MAX TEMP:  81; 6HR PCP:  0.11;

STEVENS POINT  DRIZZLE   65  61  84 CALM      30.01R
6HR MIN TEMP:  64; 6HR MAX TEMP:  78; 6HR PCP:  0.24;

WAUPACA        PTSUNNY   75  59  57 NW3       29.98R
6HR MIN TEMP:  75; 6HR MAX TEMP:  85;

WAUTOMA        MOSUNNY   81  58  45 NW8       29.99R HX  81
6HR MIN TEMP:  80; 6HR MAX TEMP:  86;

WISC RAPIDS    MOSUNNY   77  60  55 W5        30.01R
6HR MIN TEMP:  78; 6HR MAX TEMP:  82;

CAMP DOUGLAS   MOSUNNY   75  63  64 W8        30.00S
$$

WIZ011>013-019>022-031-037>040-048>050-010100-
NORTHEAST WISCONSIN

CITY           SKY/WX    TMP DP  RH WIND       PRES   REMARKS
ANTIGO         MOSUNNY   72  57  59 NW5       29.99S
6HR MIN TEMP:  72; 6HR MAX TEMP:  77;

STURGEON BAY   SUNNY     72  61  68 CALM      29.96F
6HR MIN TEMP:  73; 6HR MAX TEMP:  79;

GREEN BAY      PTSUNNY   73  62  68 W5        29.95F
6HR MIN TEMP:  73; 6HR MAX TEMP:  81;

MANITOWOC      PTSUNNY   63  61  93 E5        29.96F FOG
6HR MIN TEMP:  63; 6HR MAX TEMP:  79; 6HR PCP:  1.07;

APPLETON       PTSUNNY   70  59  68 CALM      29.97F
CLINTONVILLE   CLOUDY    72  54  53 W8        29.96F
OSHKOSH        TSTM      66  60  81 SE15      29.97S
6HR MIN TEMP:  65; 6HR MAX TEMP:  81; 6HR PCP:  1.28;

$$

WIZ032>034-041-042-053>061-010100-
SOUTHWEST WISCONSIN

CITY           SKY/WX    TMP DP  RH WIND       PRES   REMARKS
LA CROSSE      MOSUNNY   80  58  46 NW3       29.99S HX  80
6HR MIN TEMP:  80; 6HR MAX TEMP:  83;

SPARTA         SUNNY     76  56  48 W5        30.01S
6HR MIN TEMP:  76; 6HR MAX TEMP:  81;

VIROQUA        FAIR      73  58  59 W3        30.03S
6HR MIN TEMP:  73; 6HR MAX TEMP:  79;

BOSCOBEL       SUNNY     79  58  48 W3        30.01S HX  80
6HR MIN TEMP:  79; 6HR MAX TEMP:  86;

PRAIRIE DU CHI SUNNY     79  52  38 W6        30.01R
6HR MIN TEMP:  78; 6HR MAX TEMP:  83;

PLATTEVILLE    FAIR      76  58  53 W6        30.04S
6HR MIN TEMP:  76; 6HR MAX TEMP:  80;

$$

WIZ056-057-062-063-064-067-068-010100-
SOUTH CENTRAL WISCONSIN

CITY           SKY/WX    TMP DP  RH WIND       PRES   REMARKS
BARABOO/DELLS  SUNNY     77  53  42 W5        30.00S
6HR MIN TEMP:  77; 6HR MAX TEMP:  82;

LONE ROCK      SUNNY     81  59  47 W6        30.00S HX  81
6HR MIN TEMP:  81; 6HR MAX TEMP:  85;

WATERTOWN      SUNNY     76  60  56 W5        29.99F
6HR MIN TEMP:  76; 6HR MAX TEMP:  80;

MADISON        MOSUNNY   79  57  46 VRB5      30.00F HX  80
6HR MIN TEMP:  79; 6HR MAX TEMP:  83;

MIDDLETON      FAIR      78  55  43 W7        30.01S
6HR MIN TEMP:  78; 6HR MAX TEMP:  83;

MONROE         SUNNY     77  55  47 W10       30.03S
JANESVILLE     SUNNY     81  54  39 W7        30.01S HX  80
$$

WIZ051-052-058>065-066-070>072-010100-
SOUTHEAST WISCONSIN

CITY           SKY/WX    TMP DP  RH WIND       PRES   REMARKS
MILWAUKEE      PTSUNNY   80  55  42 W10       29.99S HX  80
6HR MIN TEMP:  80; 6HR MAX TEMP:  83;

WAUKESHA       SUNNY     79  54  41 W9        30.00F
MILWAUKEE/TIMM SUNNY     79  52  38 W12       30.00S
RACINE         SUNNY     79  57  46 W7        30.01S HX  80
6HR MIN TEMP:  79; 6HR MAX TEMP:  83;

BURLINGTON     SUNNY     74  58  55 W3        30.01S
6HR MIN TEMP:  74; 6HR MAX TEMP:  80;

KENOSHA        SUNNY     76  60  57 W7        30.01R
6HR MIN TEMP:  76; 6HR MAX TEMP:  82;

FOND DU LAC    MOSUNNY   78  59  51 W7        29.99R
6HR MIN TEMP:  70; 6HR MAX TEMP:  82;

SHEBOYGAN      PTSUNNY   73  63  70 S6        29.97S
6HR MIN TEMP:  71; 6HR MAX TEMP:  81; 6HR PCP: TRACE;

WEST BEND      MOSUNNY   77  54  44 SW6       29.98F
JUNEAU         SUNNY     76  55  48 SW8       30.00F
6HR MIN TEMP:  76; 6HR MAX TEMP:  80;

$$

LSZ147-162-010100-
LAKE SUPERIOR

STATION/POSITION TIME  TEMP    WIND        PRES    WAVE
                       AIR SEA DIR/SP/G            HT/PER
                 (UTC) (F)     (DEG/KT/KT) (MB)    (FT/S)
W MID LAKE BUOY  2350   54 45  210/  8/  8 1014.0F   0
PORT WING        2340   77     250/  4/  6 1014.2S
SAXON HARBOR     2300             CALM     1014.6S
$$

LMZ867-665-643>646-010100-
LAKE MICHIGAN

STATION/POSITION TIME  TEMP    WIND        PRES    WAVE
                       AIR SEA DIR/SP/G            HT/PER
                 (UTC) (F)     (DEG/KT/KT) (MB)    (FT/S)
N MID LAKE BUOY  2350   59 55  220/ 14/ 14 1013.6R   2/ 4
NORTHPORT PIER   2300   71     170/  5/  9 1013.9R
SISTER BAY       2210   77     200/ 10/ 12   N/A
ALGOMA LAKESHORE 2236          210/  7/  8   N/A
KEWAUNEE LAKESHO 2300   60     170/  8/ 10 1013.8F
SHEBOYGAN LAKESH 0000   71     170/  7/  8 1014.7S
PORT WASHINGTON  2340   70      CALM  /  3 1015.9R
ATWATER BUOY     0000   76     280/ 10     1016.3S
MILWAUKEE LAKESH 0000   80     280/ 10/ 15   N/A
S MID LAKE BUOY  2350   66 64  180/  8/  8 1016.0R   0
KENOSHA   LAKESH 0000   80     280/  9/ 13 1015.2S
$$

TC  - TEMPERATURE IN CELSIUS
VSB - VISIBILITY IN STATUTE MILES
WCI - WIND CHILL INDEX
HX  - HEAT INDEX




USA.gov is the U.S. government's official web portal to all federal, state and local government web resources and services.